Meacham, OR

8:17 AM PDT on March 30, 2017 (GMT -0700)
Meacham

Weather History for KMEH - May, 2014

Change the Weather History Date:

Wednesday, May 28, 2014

  Actual Average Record
Temperature  
Mean Temperature 43 °F -  
Max Temperature 53 °F 60 °F 80 °F (2005)
Min Temperature 35 °F 34 °F 27 °F (1998)
Degree Days  
Heating Degree Days 22    
Moisture  
Dew Point 36 °F    
Average Humidity 76    
Maximum Humidity 97    
Minimum Humidity 50    
Precipitation  
Precipitation 0.13 in - - ()
Sea Level Pressure  
Sea Level Pressure 30.09 in    
Wind  
Wind Speed 1 mph (West)    
Max Wind Speed 7 mph    
Max Gust Speed -    
Visibility 9 miles    
Events Rain    
Averages and records for this station are not official NWS values.
T = Trace of Precipitation, MM = Missing Value Source: NWS Daily Summary

Daily Weather History Graph

Daily Weather History Graph

Search for Another Location

Airport or City:

Trip Planner

Search our weather history database for the weather conditions in past years. The results will help you decide how hot, cold, wet, or windy it might be!

Date:

Astronomy

May. 28, 2014 Rise Set
Actual Time 5:10 AM PDT 8:31 PM PDT
Civil Twilight 4:34 AM PDT 9:08 PM PDT
Nautical Twilight 3:46 AM PDT 9:55 PM PDT
Astronomical Twilight 2:46 AM PDT 10:56 PM PDT
Moon 5:24 AM PDT (5/28) 8:31 PM PDT (5/28)
Length of Visible Light 16h 33m
Length of Day
15h 20m
New Moon, 0% of the Moon is Illuminated
May 28
New Moon
Jun 5
First Quarter
Jun 12
Full
Jun 19
Last Quarter
Jun 27
New

Hourly Weather History & Observations

Time (PDT) Temp. Windchill Dew Point Humidity Pressure Visibility Wind Dir Wind Speed Gust Speed Precip Events Conditions
12:56 AM 44.1 °F - 30.9 °F 60% 30.03 in 10.0 mi Calm Calm - N/A   Scattered Clouds
1:56 AM 42.1 °F - 30.9 °F 65% 30.03 in 10.0 mi Calm Calm - N/A   Mostly Cloudy
2:56 AM 39.0 °F - 32.0 °F 76% 30.04 in 10.0 mi Calm Calm - N/A   Partly Cloudy
3:56 AM 35.1 °F - 30.9 °F 85% 30.04 in 10.0 mi Calm Calm - N/A   Partly Cloudy
4:56 AM 35.1 °F - 30.9 °F 85% 30.05 in 10.0 mi Calm Calm - N/A   Mostly Cloudy
5:56 AM 37.9 °F - 33.1 °F 83% 30.04 in 10.0 mi Calm Calm - N/A   Overcast
6:56 AM 44.1 °F 42.5 °F 35.1 °F 71% 30.04 in 10.0 mi Variable 3.5 mph - N/A   Mostly Cloudy
7:19 AM 44.1 °F - 35.1 °F 71% 30.04 in 10.0 mi Calm Calm - N/A   Mostly Cloudy
7:56 AM 44.1 °F 42.5 °F 35.1 °F 71% 30.05 in 10.0 mi Variable 3.5 mph - N/A   Overcast
8:56 AM 44.1 °F 40.8 °F 35.1 °F 71% 30.05 in 10.0 mi Variable 5.8 mph - N/A   Overcast
9:56 AM 45.0 °F 41.2 °F 34.0 °F 65% 30.06 in 10.0 mi Variable 6.9 mph - N/A   Overcast
10:56 AM 46.9 °F - 34.0 °F 61% 30.06 in 10.0 mi Variable 5.8 mph - N/A   Overcast
11:03 AM 46.9 °F - 34.0 °F 61% 30.05 in 10.0 mi Variable 3.5 mph - N/A   Overcast
11:56 AM 48.0 °F - 34.0 °F 58% 30.07 in 10.0 mi Variable 3.5 mph - N/A   Overcast
12:56 PM 51.1 °F - 33.1 °F 50% 30.05 in 5.0 mi West 5.8 mph - 0.00 in   Haze
1:56 PM 46.9 °F - 37.0 °F 68% 30.09 in 8.0 mi Variable 3.5 mph - 0.01 in Rain Light Rain
2:56 PM 50.0 °F - 42.1 °F 74% 30.09 in 10.0 mi Calm Calm - 0.01 in Rain Light Rain
3:56 PM 45.0 °F 41.8 °F 37.0 °F 74% 30.15 in 2.5 mi Variable 5.8 mph - 0.01 in Rain Rain
4:09 PM 44.1 °F - 39.0 °F 82% 30.10 in 9.0 mi Calm Calm - 0.02 in Rain Light Rain
4:56 PM 50.0 °F - 39.9 °F 68% 30.11 in 10.0 mi Calm Calm - 0.02 in   Mostly Cloudy
5:56 PM 48.0 °F - 34.0 °F 58% 30.13 in 7.0 mi Variable 3.5 mph - 0.00 in Rain Rain
6:10 PM 43.0 °F 41.3 °F 37.9 °F 82% 30.11 in 2.0 mi Variable 3.5 mph - 0.04 in Rain Rain
6:20 PM 42.1 °F - 39.0 °F 89% 30.11 in 4.0 mi Calm Calm - 0.07 in Rain Rain
6:56 PM 45.0 °F - 39.9 °F 82% 30.13 in 10.0 mi Calm Calm - 0.07 in   Overcast
7:56 PM 45.0 °F - 42.1 °F 90% 30.14 in 10.0 mi Calm Calm - 0.01 in   Overcast
8:56 PM 41.0 °F - 39.0 °F 93% 30.17 in 10.0 mi Calm Calm - N/A   Partly Cloudy
9:56 PM 37.9 °F - 36.0 °F 93% 30.18 in 10.0 mi Calm Calm - N/A   Clear
10:16 PM 37.9 °F - 37.0 °F 97% 30.16 in 10.0 mi Calm Calm - N/A   Mostly Cloudy
10:35 PM 39.0 °F - 37.0 °F 93% 30.16 in 10.0 mi Calm Calm - N/A   Overcast
10:56 PM 39.9 °F - 37.9 °F 93% 30.18 in 10.0 mi Calm Calm - N/A   Overcast
11:56 PM 41.0 °F - 37.0 °F 86% 30.18 in 10.0 mi North - - N/A   Overcast